Location: Copper Breaks State Park
(34.1132°N, 99.7492°W)
Time: 17:03:49
(UTC-05:00)

SL-16 R/B - Visible Passes

Search period start: 27 June 2016 00:00
Search period end: 07 July 2016 00:00
Orbit: 985 x 1007 km, 99.3° (Epoch: 27 June)

Date Brightness Start Highest point End Pass type
(mag) Time Alt. Az. Time Alt. Az. Time Alt. Az.
27 Jun 2.8 04:15:28 11° SSE 04:21:30 69° ENE 04:27:41 10° N visible
27 Jun 4.1 06:02:09 10° SW 06:05:32 15° W 06:08:56 10° WNW visible
28 Jun 4.9 03:05:27 10° ESE 03:09:19 17° ENE 03:13:10 10° NNE visible
28 Jun 2.5 04:46:47 14° S 04:52:17 67° WSW 04:58:30 10° NNW visible
29 Jun 4.1 03:34:26 10° SE 03:39:47 31° ENE 03:45:08 10° N visible
29 Jun 3.1 05:18:07 12° SSW 05:23:14 36° W 05:28:54 10° NNW visible
30 Jun 3.1 04:04:21 10° SSE 04:10:24 56° ENE 04:16:28 10° N visible
30 Jun 3.8 05:50:02 10° SW 05:54:17 19° W 05:58:34 10° NW visible
01 Jul 5.1 02:55:23 10° E 02:58:21 14° ENE 03:01:19 10° NNE visible
01 Jul 2.5 04:35:41 14° S 04:41:10 82° WSW 04:47:25 10° NNW visible
02 Jul 4.4 03:23:50 10° ESE 03:28:46 25° ENE 03:33:41 10° NNE visible
02 Jul 2.9 05:07:01 14° SSW 05:12:03 44° W 05:17:58 10° NNW visible
03 Jul 3.5 03:53:28 10° SE 03:59:20 45° ENE 04:05:12 10° N visible
03 Jul 3.6 05:38:21 11° SSW 05:43:04 24° W 05:47:58 10° NW visible
04 Jul 5.2 02:45:57 10° ENE 02:47:25 11° ENE 02:48:52 10° NE visible
04 Jul 2.6 04:24:36 14° SSE 04:30:03 82° ENE 04:36:17 10° NNW visible
05 Jul 4.7 03:13:22 10° ESE 03:17:46 21° ENE 03:22:09 10° NNE visible
05 Jul 2.6 04:55:56 16° S 05:00:53 55° W 05:06:59 10° NNW visible
06 Jul 3.8 03:42:41 10° SE 03:48:17 37° ENE 03:53:53 10° N visible
06 Jul 3.3 05:27:16 13° SSW 05:31:52 30° W 05:37:12 10° NW visible
